TIANGONG 1 (37820 NORAD) Tracking and Keplerian Element Data
This shows tracking and keplerian element data for the satellite.
Feedback or suggestion? Click here.
Element | Value |
Catalog | 37820 |
Name | TIANGONG 1 |
Epoch Orbit | 37398 |
Epoch Day | 91.67159643 |
Epoch Year | 2018 |
RAAN | 196.1141 |
Inclination | 42.7393 |
Eccentricity | 0.0005983 |
Argument of Perigee | 335.0657 |
Mean Anonmoly | 25.0237 |
Mean Motion | 16.46560555 |
Decay Rate | 0.06702538 |
L1 | 1 37820U 11053A 18091.67159643 .06702538 93469-5 14209-3 0 9996 |
L2 | 2 37820 42.7393 196.1141 0005983 335.0657 25.0237 16.46560555373989 |
Live tracking and technical data element details for TIANGONG 1 (NORAD 37820). TIANGONG 1 can be tracked NOW for your location showing map with azimuth and elevation plus other details from your city location.
Track the satellite on the map from your city or location and see movement details for azimuth, elevation, latitude, longitude, range, height, and movement on the map or in text.
IsCatalogInMostPopularTable: catalog: 37820, numindb: 25086
Update: records affected: 1
GetName: 37820 TIANGONG 1
Hit Count: updated at: Sat, 23 Jan 2021 05:17:35 GMT